Location: Piotrkow Trybunalski
(51.4000°N, 19.6830°E)
Time: 15:47:50
(UTC+01:00)

Vanguard 2 Rocket - Visible Passes

Search period start: 02 December 2023 00:00
Search period end: 12 December 2023 00:00
Orbit: 553 x 3312 km, 32.9° (Epoch: 01 December)

Date Brightness Start Highest point End Pass type
(mag) Time Alt. Az. Time Alt. Az. Time Alt. Az.
02 Dec 10.2 17:32:13 10° WSW 17:49:54 41° S 18:03:38 11° SE visible
02 Dec 9.9 19:49:43 10° W 20:03:59 28° SSW 20:09:17 23° S visible
03 Dec 10.4 16:28:52 10° WSW 16:46:40 42° S 17:02:00 10° ESE visible
03 Dec 10.1 18:45:10 10° WSW 19:01:34 35° SSW 19:11:25 18° SSE visible
03 Dec 10.3 21:05:16 10° WSW 21:14:18 17° SW 21:17:04 16° SSW visible
04 Dec 10.3 17:41:11 10° WSW 17:58:41 39° SSW 18:12:53 10° SE visible
04 Dec 10.2 19:59:19 10° W 20:12:29 24° SW 20:19:17 17° S visible
05 Dec 10.4 16:37:44 10° WSW 16:55:28 42° S 17:11:10 10° ESE visible
05 Dec 10.3 18:54:28 10° W 19:10:10 31° SSW 19:21:35 13° SSE visible
05 Dec 10.6 21:17:14 10° WSW 21:22:31 12° SW 21:27:15 10° SSW visible
06 Dec 10.4 17:50:19 10° WSW 18:07:22 37° SSW 18:21:41 10° SE visible
06 Dec 10.5 20:09:27 10° W 20:20:48 19° SW 20:29:40 11° S visible
07 Dec 10.5 16:46:48 10° WSW 17:04:13 41° SSW 17:20:04 10° SE visible
07 Dec 10.5 19:04:03 10° W 19:18:37 27° SW 19:30:42 10° SSE visible
08 Dec 10.6 15:43:51 10° WSW 16:00:49 43° S 16:17:51 10° ESE visible
08 Dec 10.6 17:59:41 10° W 18:15:56 33° SSW 18:30:06 10° SSE visible
08 Dec 10.7 20:20:42 10° WSW 20:28:58 15° SW 20:36:20 10° SSW visible
09 Dec 10.6 16:56:02 10° WSW 17:12:52 38° SSW 17:28:43 10° SE visible
09 Dec 10.7 19:14:08 10° W 19:26:55 22° SW 19:38:04 10° S visible
10 Dec 10.7 15:53:01 10° WSW 16:09:33 41° S 16:26:38 10° SE visible
10 Dec 10.7 18:09:19 10° W 18:24:23 28° SSW 18:38:02 10° SSE visible
11 Dec 10.8 17:05:29 10° W 17:21:28 34° SSW 17:36:58 10° SSE visible
11 Dec 10.9 19:25:08 10° WSW 19:35:06 16° SW 19:44:16 10° SSW visible
